Location: Windischeschenbach
(49.8011°N, 12.1571°E)
Time: 22:30:45
(UTC+00:00)

Daily predictions for brighter satellites

Satellite Brightness Start Highest point End
(mag) Time Altitude Azimuth Time Altitude Azimuth Time Altitude Azimuth
Cosmos 2082 Rocket 4.0 17:31:32 10° N 17:34:46 15° NNE 17:37:59 10° ENE
Cosmos 1975 Rocket 3.4 17:35:08 10° NNW 17:39:27 71° W 17:43:45 10° S
Cosmos 2151 Rocket 4.3 17:35:48 10° SSE 17:39:46 32° E 17:43:47 10° NNE
Lacrosse 5 rocket 2.8 17:36:00 10° WNW 17:39:53 32° N 17:43:57 10° ENE
Cosmos 494 Rocket 4.4 17:37:50 10° NNW 17:42:55 46° ENE 17:47:58 10° SE
HJ-1C 3.7 17:41:53 10° SE 17:45:01 43° ENE 17:48:12 10° N
COSMO-SKYMED 1 3.1 17:44:49 10° N 17:49:08 66° WNW 17:53:26 10° SSW
Nadezhda 4 Rocket 4.1 17:46:12 10° N 17:52:11 53° ENE 17:58:09 10° SSE
Cosmos 1689 Rocket 4.2 17:50:15 10° N 17:52:58 32° WNW 17:55:40 10° SW
Ariane Rocket 3.8 17:49:07 10° SE 17:53:35 32° ENE 17:58:05 10° N
H-2A R/B 2.0 17:49:26 10° SSE 17:54:24 64° ENE 17:59:30 10° N
SL-08 RB Rocket 4.4 17:51:23 10° SE 17:55:31 35° ENE 17:59:39 10° N
OBJECT-B 3.0 17:55:36 11° ENE 17:56:19 11° ENE 17:57:25 10° NE
SJ 16-02 4.1 17:53:10 10° W 17:56:26 20° NW 17:59:44 10° N
Exosat Rocket 4.2 17:54:01 10° SSE 17:58:40 31° ESE 18:03:03 10° NE
USA 116 3.6 17:55:46 10° NNE 17:59:24 63° ESE 18:03:27 10° S
Cosmos 2263 Rocket 3.4 17:54:24 10° SW 17:59:43 44° NW 18:05:07 10° NNE
COSMOS 2406 4.0 17:56:24 10° NNW 18:01:32 34° NE 18:05:50 14° ESE
KORONAS-FOTON 4.3 17:58:10 10° N 18:01:53 39° ENE 18:05:35 10° SE
Cosmos 1844 Rocket 2.7 17:58:37 10° S 18:04:02 56° ESE 18:09:31 10° NE
Cosmos 1707 3.2 18:00:46 10° NNW 18:04:35 63° W 18:08:21 10° S
Cosmos 372 Rocket 4.1 18:00:38 10° SSW 18:05:53 83° WNW 18:11:09 10° NNE
Cosmos 1626 3.5 18:03:11 10° NNE 18:06:02 20° ENE 18:07:28 17° E
NOSS 3-2 (C) 4.1 17:59:22 10° NW 18:06:47 88° NE 18:15:15 10° SE
Cosmos 2278 Rocket 3.8 18:09:59 13° E 18:09:59 13° E 18:11:31 10° ENE
Cosmos 1844 3.8 18:06:00 10° S 18:11:30 52° ESE 18:16:57 10° NE
Cosmos 2034 Rocket 4.0 18:05:29 10° S 18:11:43 62° E 18:17:57 10° NNE
ISS -3.7 18:08:56 10° W 18:12:19 77° NNW 18:14:49 17° ENE
Meteor 2-5 Rocket 4.1 18:07:00 10° N 18:12:25 44° ENE 18:17:55 10° SE
NOSS 3-4 (A) 4.1 18:07:55 10° S 18:13:01 31° ESE 18:18:22 10° NE
NOSS 3-4 (C) 4.1 18:08:03 10° S 18:13:07 31° ESE 18:18:27 10° ENE
NOSS 5 (C) 4.4 18:10:14 10° NW 18:13:17 62° NE 18:15:45 18° ESE
USA 186 2.4 18:11:04 15° SE 18:13:24 37° ENE 18:16:29 10° N
Lacrosse 4 Rocket 3.1 18:11:51 10° N 18:14:43 18° NE 18:16:33 14° ENE
Meteor 1-24 Rocket 4.3 18:09:51 10° N 18:14:59 36° ENE 18:19:24 14° SE
Meteor 1-12 Rocket 4.3 18:09:16 10° S 18:15:08 89° ESE 18:20:57 10° NNE
Cosmos 1300 Rocket 3.7 18:15:58 10° SSW 18:20:23 79° W 18:24:52 10° N
Okean 1 Rocket 3.5 18:19:25 10° SSE 18:23:37 41° E 18:27:51 10° NNE
SL-14 R/B 4.2 18:21:41 10° N 18:25:10 29° ENE 18:26:27 24° ESE
CENTAUR R/B 3.3 18:17:51 10° NW 18:25:50 81° SW 18:34:39 10° SE
Resurs 01 Rocket 3.0 18:25:51 19° E 18:26:56 21° ENE 18:30:15 10° NNE
Cosmos 1833 Rocket 3.4 18:21:49 10° NNW 18:27:05 38° NE 18:30:11 22° ESE
Cosmos 2298 Rocket 4.2 18:21:50 10° SSW 18:27:11 81° WNW 18:32:33 10° NNE
CSL-04 Rocket 4.4 18:27:13 10° S 18:32:35 57° W 18:38:02 10° NNW
Cosmos 1025 Rocket 4.1 18:29:42 10° NNW 18:33:56 48° W 18:38:10 10° SSW
Cosmos 1766 3.6 18:30:52 10° SSE 18:34:36 43° E 18:38:22 10° NNE
Okean 2 Rocket 3.8 18:30:35 10° SSW 18:34:59 56° WNW 18:39:24 10° N
ATLAS 2AS CENTAUR R/B 3.3 18:28:04 10° S 18:35:30 46° ESE 18:42:55 10° NE
ATLAS 3B R/B 2.9 18:31:32 10° NW 18:38:15 57° NE 18:42:34 24° ESE
Cosmos 1634 Rocket 4.2 18:33:39 10° SSE 18:39:29 46° E 18:45:22 10° NNE
Abrixas rocket 3.1 18:39:08 10° W 18:41:40 29° SSW 18:42:11 27° S
SPOT 3 Rocket 4.1 18:40:10 26° ESE 18:42:25 40° ENE 18:47:12 10° N
ARIANE 5 R/B 4.2 18:42:31 18° ENE 18:42:34 18° ENE 18:45:28 10° NNE
CREW DRAGON DEMO-1 DEB 4.0 18:40:40 10° W 18:43:27 34° SSW 18:44:16 28° S
Cosmos 1536 Rocket 4.4 18:39:24 10° NNW 18:43:44 52° W 18:48:05 10° S
Cosmos 1125 Rocket 3.6 18:42:28 10° SSW 18:47:48 85° WNW 18:53:10 10° NNE
Resurs 1-3 4.0 18:48:54 35° ESE 18:50:11 45° ENE 18:54:24 10° N
SJ-6B 2.6 18:48:31 28° SSE 18:50:23 79° ENE 18:54:12 10° N
Cosmos 1892 Rocket 3.9 18:46:28 10° N 18:50:35 41° ENE 18:51:25 37° ESE
CZ-4 R/B 4.4 18:50:18 10° SW 18:53:09 18° W 18:56:00 10° NW
Cosmos 2195 Rocket 4.4 18:47:47 10° N 18:54:04 82° E 19:00:07 11° SSE
Cosmos 1627 Rocket 4.5 18:49:15 10° N 18:55:42 77° E 19:01:24 13° SSE
Cosmos 1674 3.6 18:52:24 10° NNW 18:56:09 49° W 18:59:50 10° S
Cosmos 2026 Rocket 4.0 18:50:33 10° N 18:56:57 75° E 19:02:16 16° SSE
Cosmos 1092 Rocket 4.0 18:50:56 10° N 18:57:08 87° W 19:03:21 10° S
Cosmos 2285 Rocket 4.0 18:52:13 10° SSW 18:58:32 89° ESE 19:04:57 10° NNE
MOS 1 Rocket 4.0 18:57:51 10° N 19:02:08 50° WNW 19:06:16 10° SW
FREGAT/IRIS 3.1 19:04:41 49° NW 19:04:41 49° NW 19:06:49 10° NNW
Cosmos 1428 Rocket 4.4 18:59:13 10° N 19:05:31 81° E 19:10:06 19° SSE
TSX-5 3.9 19:05:45 10° SSW 19:09:41 77° ESE 19:14:48 10° NE
ARGOS 4.3 19:05:32 10° SSW 19:10:35 42° W 19:15:43 10° NNW
CZ-2C R/B 2.7 19:06:48 10° NNE 19:12:25 88° ESE 19:18:02 10° SSW
Cosmos 1340 Rocket 2.6 19:15:11 71° E 19:15:11 71° E 19:19:07 10° NNE
Cosmos 2279 Rocket 4.0 19:12:59 29° SSE 19:15:59 55° E 19:22:06 10° NNE
Cosmos 1733 3.4 19:13:48 16° SSW 19:16:49 71° WNW 19:20:39 10° N
MetOp-B 4.5 19:17:29 42° E 19:18:07 44° ENE 19:23:12 10° N
Lacrosse 5 rocket 2.3 19:15:41 10° NW 19:19:53 41° NNE 19:20:43 37° NE
Cosmos 2082 Rocket 2.4 19:14:43 10° NNW 19:20:14 52° NE 19:21:17 46° E
Cosmos 2098 Rocket 4.1 19:13:38 10° N 19:20:14 49° ENE 19:21:19 44° ESE
DMSP B5D2-2 4.0 19:16:55 10° NNE 19:22:15 88° WNW 19:27:33 10° SSW
BREEZE-M R/B 3.3 19:16:55 10° WSW 19:24:25 70° S 19:24:25 70° S
Spot 2 Rocket 4.2 19:25:14 36° ENE 19:25:14 36° ENE 19:29:34 10° N
OBJECT-B 1.7 19:28:48 48° NW 19:28:48 48° NW 19:31:27 10° NNW
Cosmos 2142 Rocket 4.3 19:24:37 16° S 19:29:41 77° E 19:35:55 10° NNE
Ariane Rocket 4.1 19:28:06 12° SSW 19:32:25 42° W 19:37:16 10° NNW
H-2A R/B 4.4 19:30:38 10° SW 19:34:19 20° W 19:38:04 10° NW
Cosmos 1626 3.5 19:38:00 10° NNW 19:41:23 34° W 19:42:02 32° WSW
Terra 3.7 19:42:51 18° NE 19:42:51 18° NE 19:44:55 10° NNE
Okean 1-7 Rocket 3.6 19:37:15 10° N 19:41:51 84° W 19:41:51 84° W
Cosmos 1455 Rocket 3.8 19:47:18 43° NNE 19:47:18 43° NNE 19:50:18 10° N
COSMOS 2406 3.8 19:40:35 10° NW 19:46:06 53° WSW 19:47:55 38° SSW
SPOT 1/Viking Rocket 4.0 19:48:44 46° NE 19:48:44 46° NE 19:53:02 10° N
Cosmos 1844 Rocket 4.4 19:43:18 10° WSW 19:48:15 32° NW 19:53:15 10° NNE
ISS -1.7 19:45:57 10° WNW 19:47:46 29° WNW 19:47:46 29° WNW
ATLAS CENTAUR R/B 3.9 19:50:40 10° N 19:51:16 10° NNE 19:51:16 10° NNE
Cosmos 2278 Rocket 2.0 19:46:12 10° SSW 19:51:51 79° ESE 19:57:32 10° NNE
Lacrosse 4 Rocket 2.2 19:49:50 10° NW 19:52:52 49° NW 19:52:52 49° NW
Cosmos 909 Rocket 3.8 19:52:37 10° NW 19:59:12 88° NE 19:59:55 72° SE
Cosmos 2266 Rocket 3.8 19:54:28 10° N 20:00:32 73° E 20:00:33 73° E
Resurs 01 Rocket 2.3 20:03:26 53° W 20:03:26 53° W 20:07:28 10° NNW
NOSS 3-4 (A) 3.7 19:57:30 10° SW 20:03:25 65° NW 20:09:53 10° NE
NOSS 3-4 (C) 3.7 19:57:36 10° SW 20:03:32 66° NW 20:09:58 10° NE
CZ-2C R/B 4.5 20:06:28 10° N 20:09:58 48° NNW 20:09:58 48° NNW
Cosmos 1833 Rocket 3.4 20:05:46 10° NW 20:11:08 45° WSW 20:11:54 43° SW
Cosmos 2251 Rocket 3.8 20:08:42 10° NNW 20:13:44 65° W 20:13:44 65° W
ERS-1 Rocket 4.0 20:17:40 38° NNE 20:17:40 38° NNE 20:20:58 10° N
ARIANE 5 R/B 3.9 20:20:05 38° NW 20:20:05 38° NW 20:22:55 10° NNW
ATLAS 2AS CENTAUR R/B 3.4 20:18:32 10° WSW 20:26:26 62° NW 20:34:11 10° NE
ATLAS 3B R/B 3.4 20:22:25 10° NW 20:28:52 44° WSW 20:29:50 42° SW
SPOT 5 4.0 20:33:48 43° N 20:33:48 43° N 20:37:25 10° N
Lacrosse 5 rocket 3.9 20:54:52 10° WNW 20:56:20 20° WNW 20:56:20 20° WNW
Cosmos 2082 Rocket 3.7 20:59:12 10° NW 21:03:08 29° W 21:03:08 29° W
Terra 4.0 21:21:45 23° NNW 21:21:45 23° NNW 21:23:33 10° NNW
Cosmos 2278 Rocket 4.2 21:33:01 14° W 21:36:35 25° NW 21:41:14 10° NNE
Cosmos 2227 Rocket 4.5 22:08:48 10° N 22:11:40 18° NNE 22:11:40 18° NNE
ATLAS 2AS CENTAUR R/B 4.4 22:11:59 10° WNW 22:18:56 32° NNW 22:25:40 10° NE
Cosmos 1943 Rocket 4.5 22:24:03 19° NNE 22:24:03 19° NNE 22:25:34 10° NNE
CZ-4C R/B 4.2 22:45:17 27° N 22:45:17 27° N 22:49:23 10° NE
Cosmos 2297 Rocket 4.4 22:54:15 10° NNW 22:56:26 22° N 22:56:26 22° N
Cosmos 2369 Rocket 4.4 23:10:31 21° N 23:10:31 21° N 23:12:40 10° NNE
SL-16 R/B 3.9 23:50:37 33° NNE 23:50:37 33° NNE 23:54:33 10° N
